Flag for Finland Weather past 2 weeks in Vaasa, Finland

Now
50 °F

Fog.


Feels Like: 50 °F
Forecast: 52 / 59 °F
Wind: 2 mph from South

Location: Vaasa Airport

Current Time: Sep 1, 2015 at 3:18:08 AM

Latest Report: Sep 1, 2015 at 2:50 AM


Visibility: 0 mi

Pressure: 29.98 "Hg

Humidity: 100%

Dew point: 50 °F

Location of VaasaLocation

Historic Weather in Vaasa — Graph

°F

Vaasa temperature yesterday

Maximum temperature yesterday: 66 °F (at 12:20 PM)
Minimum temperature yesterday: 45 °F (at 6:20 AM)
Average temperature yesterday: 58 °F

Past Weeks' High & Low Weather Summary

 TemperatureHumidityPressure
High79 °F (Aug 25, 4:20 PM)100% (Aug 17, 4:50 AM)30.39 "Hg (Aug 17, 4:50 AM)
Low41 °F (Aug 17, 4:50 AM)29% (Aug 23, 4:50 PM)29.50 "Hg (Aug 28, 3:20 PM)
Average60 °F76%30.09 "Hg
* Reported Aug 17 2:20 AM — Sep 1 2:20 AM, Vaasa, Weather by CustomWeather, © 2015

Note: Actual official high and low records may vary slightly from our data, if they occured in-between our weather recording intervals... More about our weather records

Advertising

Vaasa weather history for previous 24 hours

 ConditionsComfort  
Time TempWeatherWind HumidityBarometerVisibility
2:20 AM
Tue, Sep 1
46 °FClear.3 mph100%29.98 "Hg10 mi
1:50 AM50 °FClear.No wind94%29.98 "Hg10 mi
1:20 AM48 °FClear.3 mph100%29.98 "Hg10 mi
12:20 AM50 °FPassing clouds.1 mph94%29.98 "HgN/A
11:50 PM
Mon, Aug 31
52 °FPassing clouds.No wind94%29.98 "HgN/A
11:20 PM52 °FPassing clouds.2 mph94%29.98 "HgN/A
10:50 PM52 °FPassing clouds.No wind94%29.98 "HgN/A
10:20 PM54 °FPassing clouds.2 mph88%29.98 "HgN/A
9:50 PM55 °FPassing clouds.1 mph88%29.98 "HgN/A
9:20 PM57 °FPassing clouds.No wind88%29.98 "HgN/A
8:50 PM61 °FPartly sunny.1 mph77%29.98 "HgN/A
8:20 PM63 °FOvercast.1 mph73%29.98 "HgN/A
7:50 PM64 °FPartly sunny.2 mph64%29.98 "HgN/A
7:20 PM64 °FPartly sunny.3 mph64%29.98 "HgN/A
6:50 PM66 °FScattered clouds.3 mph56%29.98 "HgN/A
6:20 PM66 °FPartly sunny.3 mph56%29.98 "HgN/A
5:50 PM66 °FPassing clouds.6 mph52%30.01 "HgN/A
5:20 PM66 °FScattered clouds.7 mph52%30.01 "HgN/A
4:50 PM64 °FScattered clouds.6 mph52%30.01 "HgN/A
4:20 PM66 °FScattered clouds.8 mph46%30.01 "HgN/A
3:50 PM66 °FPartly sunny.7 mph56%30.01 "HgN/A
3:20 PM64 °FPartly sunny.9 mph56%30.01 "HgN/A
2:50 PM66 °FScattered clouds.7 mph49%30.01 "HgN/A
2:20 PM66 °FPartly sunny.8 mph52%30.01 "HgN/A
1:50 PM66 °FPassing clouds.8 mph52%30.01 "HgN/A
1:20 PM66 °FScattered clouds.7 mph49%30.01 "HgN/A
12:50 PM66 °FPassing clouds.3 mph52%30.01 "HgN/A
12:20 PM66 °FPassing clouds.5 mph52%30.01 "HgN/A
11:50 AM64 °FPassing clouds.5 mph56%30.01 "HgN/A
11:20 AM64 °FPassing clouds.5 mph52%30.01 "HgN/A
10:50 AM63 °FPassing clouds.3 mph68%30.01 "HgN/A
10:20 AM63 °FPassing clouds.5 mph64%30.01 "HgN/A
9:50 AM61 °FPassing clouds.5 mph77%30.01 "HgN/A
9:20 AM57 °FSunny.1 mph88%30.01 "Hg10 mi
8:50 AM55 °FSunny.No wind94%30.01 "Hg10 mi
8:20 AM50 °FSunny.2 mph100%30.01 "Hg10 mi
7:50 AM48 °FSunny.1 mph100%30.01 "Hg10 mi
7:20 AM46 °FPassing clouds.1 mph93%30.01 "HgN/A
6:50 AM46 °FFog.No wind93%30.01 "Hg1 mi
6:20 AM45 °FPassing clouds.2 mph100%30.01 "Hg4 mi
5:50 AM46 °FFog.No wind100%30.01 "Hg0 mi
5:20 AM46 °FFog.No wind100%30.01 "Hg0 mi
4:50 AM48 °FFog.1 mph100%30.01 "Hg0 mi
4:20 AM50 °FFog.1 mph100%30.01 "Hg0 mi
3:50 AM50 °FFog.1 mph100%29.98 "Hg1 mi
3:20 AM50 °FFog.1 mph100%29.98 "Hg0 mi
Weather by CustomWeather, © 2015

See weather overviewHow to use our weather pages